TimeEDT,TemperatureF,Dew PointF,Humidity,Sea Level PressureIn,VisibilityMPH,Wind Direction,Wind SpeedMPH,Gust SpeedMPH,PrecipitationIn,Events,Conditions,WindDirDegrees,DateUTC
12:53 AM,75.9,69.1,79,30.18,10.0,Calm,Calm,-,N/A,,Clear,0,2013-07-18 04:53:00
1:53 AM,75.0,69.1,82,30.17,10.0,Calm,Calm,-,N/A,,Clear,0,2013-07-18 05:53:00
2:53 AM,73.9,69.1,85,30.15,10.0,Calm,Calm,-,N/A,,Clear,0,2013-07-18 06:53:00
3:53 AM,75.9,70.0,82,30.16,10.0,NNE,5.8,-,N/A,,Mostly Cloudy,20,2013-07-18 07:53:00
4:53 AM,75.0,70.0,84,30.14,10.0,Calm,Calm,-,N/A,,Clear,0,2013-07-18 08:53:00
5:53 AM,73.9,69.1,85,30.14,10.0,Calm,Calm,-,N/A,,Clear,0,2013-07-18 09:53:00
6:53 AM,73.9,70.0,87,30.14,10.0,East,4.6,-,N/A,,Clear,100,2013-07-18 10:53:00
7:53 AM,75.9,70.0,82,30.16,10.0,SE,5.8,-,N/A,,Mostly Cloudy,140,2013-07-18 11:53:00
8:53 AM,79.0,72.0,79,30.17,10.0,ESE,3.5,-,N/A,,Overcast,120,2013-07-18 12:53:00
9:53 AM,80.1,73.0,79,30.18,10.0,SE,8.1,-,N/A,,Overcast,140,2013-07-18 13:53:00
10:21 AM,82.4,73.4,74,30.16,10.0,SE,3.5,-,N/A,,Mostly Cloudy,140,2013-07-18 14:21:00
10:53 AM,82.9,73.0,72,30.19,10.0,SE,4.6,-,N/A,,Mostly Cloudy,140,2013-07-18 14:53:00
11:53 AM,88.0,71.1,57,30.19,10.0,Variable,4.6,-,N/A,,Scattered Clouds,0,2013-07-18 15:53:00
12:53 PM,90.0,70.0,52,30.18,10.0,South,5.8,-,N/A,,Scattered Clouds,180,2013-07-18 16:53:00
1:53 PM,89.1,68.0,50,30.16,10.0,South,4.6,-,N/A,,Mostly Cloudy,190,2013-07-18 17:53:00
2:53 PM,91.0,69.1,48,30.15,10.0,NE,3.5,-,N/A,,Mostly Cloudy,50,2013-07-18 18:53:00
3:53 PM,91.0,66.0,44,30.11,10.0,Variable,5.8,-,N/A,,Scattered Clouds,0,2013-07-18 19:53:00
4:53 PM,90.0,69.1,50,30.08,10.0,Calm,Calm,-,N/A,,Scattered Clouds,0,2013-07-18 20:53:00
5:53 PM,91.9,68.0,45,30.07,10.0,Variable,3.5,-,N/A,,Scattered Clouds,0,2013-07-18 21:53:00
6:53 PM,91.9,66.9,44,30.06,10.0,Calm,Calm,-,N/A,,Scattered Clouds,0,2013-07-18 22:53:00
7:53 PM,90.0,68.0,48,30.08,10.0,Calm,Calm,-,N/A,,Mostly Cloudy,0,2013-07-18 23:53:00
8:53 PM,84.9,71.1,63,30.09,10.0,SE,4.6,-,N/A,,Mostly Cloudy,140,2013-07-19 00:53:00
9:53 PM,81.0,71.1,72,30.10,10.0,Calm,Calm,-,0.00,,Mostly Cloudy,0,2013-07-19 01:53:00
10:53 PM,82.0,71.1,69,30.12,10.0,SE,5.8,-,N/A,,Clear,130,2013-07-19 02:53:00
11:53 PM,81.0,71.1,72,30.13,10.0,South,6.9,-,N/A,,Clear,170,2013-07-19 03:53:00